XRISM

Last updated on Mon Sep 21 2026 00:02:09 GMT+0000 (Coordinated Universal Time)

1 57800U 23137A 26262.93739358 .00003421 00000+0 18275-3 0 9996 2 57800 31.0014 105.5128 0007448 202.3471 157.6844 15.13146606167221
UTC large
Height (km)
Speed (km/s)
/
Latitude / Longitude
Inclination (degrees)
Orbital Period (minutes)
Azimuth
Elevation
Range (km)
Doppler Factor

Next 0 passes for location: London (51.5072 / 0.1276)

No passes found over London.
XRISM